STARLINK-2572

decayed
NORAD ID: 48372 Int'l Des: 2021-038 Owner: SPXS Country: US Constellation: starlink
LEOCIRCULAR

关于 STARLINK-2572

正在加载描述...

高度历史

Altitude vs Time

uPlot chart will show altitude changes over time

两行轨道根数

1 48372U 21038V 24242.22869466 .30919481 12358-4 29305-2 0 9994
2 48372 53.0309 254.4381 0003527 7.3411 79.5747 16.37788371184773
Epoch: Aug 29, 2024 • Age: 9019 hours

当前状态

Position data unavailable
发射日期 May 4, 2021
运行时间 4.3 years
衰减日期 Aug 29, 2024
类型 internet

技术详情

分类 Payload
质量 260.00 kg
干质量 248.00 kg
总质量 260.00 kg
长度 0.20 m
直径 2.80 m
跨度 9.00 m
形状 Box + pan
制造商 SPXS
平台类型 Starlink
阶段状态 Unknown Transfer Status
所有者/国家 SPXS/US

大型星座

Loading constellations...